Simultaneous Nadir Overpasses (SNOs) Predictions

Prediction of SNOs between METOP-B and TERRA Satellite Orbit:

Table of predicted SNOs for the next 14.0 days since TLE Epoch: 5/21/2021
Index Date (METOP-B) Time (METOP-B) Lat,Lon (METOP-B) SZA (METOP-B ) Date (TERRA) Time (TERRA) Lat,Lon (TERRA) SZA (TERRA ) Distance(km) Time Diff (sec)
1 05/22/2021 09:56:20 81.26, 76.23 63.59 05/22/2021 09:56:29 81.26, 76.22 63.59 0.59 9
2 05/22/2021 10:46:59 -81.27,-115.71 116.33 05/22/2021 10:45:55 -81.27,-115.87 116.38 2.77 64
3 05/25/2021 04:40:04 -81.26, -24.93 116.96 05/25/2021 04:41:15 -81.25, -25.10 116.95 2.99 71
4 05/25/2021 05:30:44 81.26, 142.64 63.07 05/25/2021 05:30:41 81.25, 142.62 63.06 0.99 3
5 05/28/2021 00:14:27 -81.26, 41.52 117.44 05/28/2021 00:15:25 -81.27, 41.66 117.39 2.63 58
6 05/28/2021 01:05:06 81.27,-150.57 62.63 05/28/2021 01:04:51 81.27,-150.65 62.62 1.50 15
7 05/30/2021 19:48:51 -81.26, 107.96 117.87 05/30/2021 19:49:37 -81.26, 108.01 117.84 0.95 46
8 05/30/2021 20:39:30 81.27, -84.17 62.20 05/30/2021 20:39:03 81.26, -84.34 62.16 2.81 27
9 06/02/2021 15:23:15 -81.26, 174.39 118.25 06/02/2021 15:23:49 -81.25, 174.31 118.25 1.28 34



Historial Predications of SNOs between METOP-B and TERRA
